STARLINK-35938, 66644

Orbit data source: Space-Track

STARLINK-35938, 66644 is a payload satellite owned by SpaceX/Seattle (US) in LEO that was launched on Sun, 23 Nov 2025 UTC via an FALCON 9 launch vehicle from the Air Force Western Test Range (AFWTR). Payload-class satellites include a variety of spacecraft equipped with specific instruments for various scientific and technological missions. These include communications satellites like Starlink; space stations such as the ISS; scientific satellites like the Hubble; Earth observation satellites from companies like Planet Labs, Umbra, and HawkEye 360; GPS; miniature CubeSats for education and research; and military/defense satellites.

Loading next visibility...
Identifier
66644, 2025-271AD
Orbit
LEO
Country
Flag of USUS
Related business
Manufacturer
SpaceX/Seattle
Mission
Operational Commercial Communications
Bus & Motor
STARLINK V2MO, Unknown motor
Mass
575 kg wet, ~530 kg dry
Launch date (UTC)
2025-11-23 (7 months ago)
Launch vehicle
FALCON 9
Launch site
Air Force Western Test Range (AFWTR)
Object type
Payload
Rocket body
Debris
Shape & HBR
Box + 2 Pan, 17.7 m
Radar Cross Section
36.964 m², Large (>1 m²)

Expand to show TLE details & history
Last TLE update: 6 days ago

TLE from 6 days ago
0 STARLINK-35938
1 66644U 25271AD  26167.91199156  .00023275  00000-0  79463-3 0  9997
2 66644  53.1602  39.3649 0001199  83.4537 276.6600 15.30235609 32757
Epoch: 2026-06-16T21:53Z
TLE epoch observation values (Epoch: 2026-06-16T21:53:16.070Z)
Latitude
-0.00006°
Longitude
165.87068°
Altitude
475.913 km
Speed
7.629 km/s
True Right ascension
02h 37m 27s
True Declination
0° 00' 00"
Sunlit
Object was in daylight at epoch
Visualization orbit readout
Latitude
Unknown
Longitude
Unknown
Altitude
Unknown
Speed
Unknown
Apparent Right ascension
Unknown
Apparent Declination
Unknown
Sunlit
N/A
Visualization observer readout
Local Sidereal Time
11:46:12
Azimuth
Unknown
Elevation
Unknown
Doppler factor
Unknown
Orbital elements
Apogee altitude
476.187 km
Perigee altitude
474.543 km
Semi-major axis
6,853.502 km
Eccentricity
0.00012
Inclination
53.1602°
RAAN
39.3649°
Arg. of periapsis
83.4537°
True anomaly
276.64635°
Mean anomaly
276.66°
Eccentric anomaly
276.65318°
Mean motion
3.82538 °/min
Orbital period
94.11 mins
BSTAR
0.00079463
Loading maneuver chart data...
Computing Atmospheric mass density...
Loading historical data...
Loading historical data...
Loading historical data...
Loading historical data...
Loading historical data...
Loading historical data...
Loading historical data...

Documentation

Showing up to 5 results
|